Showing default

ORBCOMM FM 118, 41183

Orbit data source: Space-Track

ORBCOMM FM 118, 41183 is a payload satellite owned by Orbcomm (US) in LEO that was launched on Tue, 22 Dec 2015 UTC via an FALCON 9 launch vehicle from the Air Force Eastern Test Range (AFETR). Payload-class satellites include a variety of spacecraft equipped with specific instruments for various scientific and technological missions. These include communications satellites like Starlink; space stations such as the ISS; scientific satellites like the Hubble; Earth observation satellites from companies like Planet Labs, Umbra, and HawkEye 360; GPS; miniature CubeSats for education and research; and military/defense satellites.

Loading next visibility...
Identifier
41183, 2015-081E
Orbit
LEO
Last TLE update
4 hours ago
Origin
Manufacturer
SNC Louisville
Mission
Operational Commercial Communications
Bus & Motor
SN-100A, Unknown motor
Mass
172 kg wet, 158 kg dry
Launch date (UTC)
2015-12-22 (10 years ago)
Launch vehicle
FALCON 9
Launch site
Air Force Eastern Test Range (AFETR)
Object type
Payload
Rocket body
Debris
Shape & HBR
Box + 1 Pan + 1 Ant, 6.5 m
Radar Cross Section
2.222 m², Medium (>0.1 m² and < 1m²)

Expand to show TLE details & history

TLE from 4 hours ago
0 ORBCOMM FM 118
1 41183U 15081E   25199.54381079  .00000418  00000-0  12621-3 0  9993
2 41183  47.0037 138.5255 0003718 297.7369  62.3139 14.58226919509107
Epoch: 2025-07-18T13:03Z
TLE epoch observation values (Epoch: 2025-07-18T13:03:05.252Z)
Latitude
-0.00003°
Longitude
6.15984°
Altitude
697.899 km
Speed
7.509 km/s
True Right ascension
09h 14m 06s
True Declination
0° 00' 00"
Sunlit
Object was in daylight at epoch
Visualization orbit readout
Latitude
-35.63278°
Longitude
-133.03377°
Altitude
708.569 km
Speed
7.502 km/s
Apparent Right ascension
21h 21m 34s
Apparent Declination
-46° 25' 39"
Sunlit
Object is in full shadow
Visualization observer readout
Local Sidereal Time
06:10:44
Azimuth
243.154° WSW
Elevation
-55.148°
Doppler factor
1
Orbital elements
Apogee altitude
702.771 km
Perigee altitude
697.507 km
Semi-major axis
7,078.276 km
Eccentricity
0.00037
Inclination
47.0037°
RAAN
138.5255°
Arg. of periapsis
297.7369°
True anomaly
62.35164°
Mean anomaly
62.3139°
Eccentric anomaly
62.33277°
Mean motion
3.64462 °/min
Orbital period
98.78 mins
BSTAR
0.00012621
Loading maneuver chart data...
Loading SW <> Apogee altitude chart data...
Loading historical data...
Loading historical data...
Loading historical data...
Loading historical data...
Loading historical data...
Loading historical data...
Loading historical data...
|